Regional Weather Roundup
Issued by NWS

Home | Current Version | Previous Version | Text Only | Print | Product List | Glossary Off
Versions: 1 2 3 4 5 6 7 8 9 10 11 12 13 14 15 16 17 18 19 20 21 22 23 24 25 26 27 28 29 30 31 32 33 34 35 36 37 38 39 40 41 42 43 44 45 46 47 48 49 50

000
ASUS45 KBOU 050307
RWRCO

WEATHER ROUNDUP FOR COLORADO
NATIONAL WEATHER SERVICE DENVER/BOULDER CO
900 PM MDT MON MAY 04 2015

NOTE: "FAIR" INDICATES FEW OR NO CLOUDS BELOW 12000 FEET WITH NO
SIGNIFICANT WEATHER AND/OR OBSTRUCTIONS TO VISIBILITY.

COZ001>005-013-030-031-050400-
...NORTHWEST COLORADO...

CITY           SKY/WX    TMP DP  RH WIND       PRES   REMARKS
CRAIG          MOCLDY    53  40  61 SE6       30.01R
HAYDEN         NOT AVBL
MEEKER         PTCLDY    54  41  61 N9        29.98R
MOUNT WERNER   NOT AVBL
STEAMBOAT SPGS CLOUDY    50  38  62 E6G17     30.05R
WALDEN         PTCLDY    45  36  70 SW6       30.11R
$$

COZ006>008-011-050400-
...WEST CENTRAL VALLEYS...

CITY           SKY/WX    TMP DP  RH WIND       PRES   REMARKS
GRAND JUNCTION CLOUDY    62  42  47 S17G23    29.91R
MONTROSE       CLOUDY    52  46  80 S9        29.99R
EAGLE          MOCLDY    52  43  71 E6        30.05R
RIFLE          MOCLDY    55  45  68 S3        29.95R
DELTA          CLOUDY    62  43  49 SW6       29.96R
NUCLA          CLOUDY    54  43  66 CALM      30.01S
$$

COZ017>023-064>068-050400-
...SOUTHWEST COLORADO...

CITY           SKY/WX    TMP DP  RH WIND       PRES   REMARKS
DURANGO        CLOUDY    48  46  93 NE8       30.03R
CORTEZ         CLOUDY    52  46  80 N5        29.98R
PAGOSA SPRINGS RAIN      44  43  98 N6        30.11F
TELLURIDE      CLOUDY    42  38  86 CALM      30.13R
WOLF CREEK PAS NOT AVBL
$$

COZ009-010-012-014-032>034-037-058>063-050400-
...CENTRAL COLORADO...

CITY           SKY/WX    TMP DP  RH WIND       PRES   REMARKS
ASPEN          CLOUDY    46  40  79 CALM      30.06R
BUENA VISTA    NOT AVBL
COPPER MTN     MOCLDY    37  32  81 W10       30.26S
BERTHOUD PASS  HAZE      28  21  74 E10G18    30.30S VSB<1/4 WCI  19
COTTONWOOD PAS LGT SNOW  37  36  93 CALM      30.20R
GUNNISON       MOCLDY    45  34  65 S5        30.09R
KREMMLING      CLOUDY    46  37  71 N6        30.11S
LEADVILLE      LGT RAIN  38  37  97 S7        30.16R
MONARCH PASS   FOG       32  32 100 MISG      30.34R VSB<1/4
SALIDA         CLOUDY    49  44  81 N7        30.17S
SUNLIGHT       MOCLDY    37  34  87 NE3       30.22R
WILKERSON PASS FOG       32  32 100 SE5       30.28R VSB 1/4 WCI  27
$$

COZ069>075-050400-
...SAN LUIS VALLEY/SANGRE DE CRISTO MOUNTAINS...

CITY           SKY/WX    TMP DP  RH WIND       PRES   REMARKS
ALAMOSA        CLOUDY    51  38  60 SE9       30.04R
LA VETA PASS   DRIZZLE   37  36  93 MISG      30.19S
SAGUACHE       CLOUDY    50  39  66 SE5G18    30.07R
$$

COZ035-036-038>040-050400-
...NORTHERN COLORADO FRONT RANGE...

CITY           SKY/WX    TMP DP  RH WIND       PRES   REMARKS
DENVER INTL AP CLOUDY    51  48  89 E14       30.08R
DMNS CITY PARK   N/A     51  51  98 E6G14     30.07R
AURORA         NOT AVBL
FRONT RANGE AP CLOUDY    54  50  87 E12       30.09R
ERIE MUNI ARPT DRIZZLE   52  51  95 E7        30.08R
BOULDER MUN AP LGT RAIN  52  52 100 E6        30.07S
CENTENNIAL     LGT RAIN  51  48  89 SE6       30.08R
BROOMFIELD     DRIZZLE   52  52 100 VRB5      30.09R FOG
FORT COLLINS   CLOUDY    52  48  87 E9        30.10R
LONGMONT       CLOUDY    55  51  86 E8        30.10R
$$

COZ041-046-047-076>085-087-088-050400-
...PIKES PEAK/PALMER DIVIDE AND SOUTHERN FOOTHILLS...

CITY           SKY/WX    TMP DP  RH WIND       PRES   REMARKS
COLO. SPRINGS  CLOUDY    49  46  90 NE20      30.09R THUNDER
A. F. ACADEMY  NOT AVBL
ELLICOTT       CLOUDY     1   1 100 SW3       30.08R
FALCON         RAIN      45  44  97 NE12      30.14R
FORT CARSON    RAIN      48  47  96 N13       30.08R
LIMON          LGT RAIN  50  48  93 E15       30.10R
MONUMENT HILL  RAIN      45  43  93 SE8       30.13R
TRINIDAD       MOCLDY    49  48  97 CALM      30.05R
$$

COZ042>045-048>051-090-091-050400-
...NORTHEAST COLORADO...

CITY           SKY/WX    TMP DP  RH WIND       PRES   REMARKS
GREELEY ARPT   CLOUDY    52  43  71 E17       30.10R
AKRON          CLOUDY    46  45  96 NE15      30.09R FOG
BURLINGTON     CLOUDY    53  47  79 E14       30.11S
WRAY           CLOUDY    49  47  90 N9        30.10R
STERLING       CLOUDY    48  45  87 E8        30.11S
HOLYOKE        NOT AVBL
FORT MORGAN    CLOUDY    48  44  86 NE12      30.09S
$$

COZ086-089-092>099-050400-
...SOUTHEAST COLORADO...

CITY           SKY/WX    TMP DP  RH WIND       PRES   REMARKS
PUEBLO         CLOUDY    58  46  64 E3        30.01R
LA JUNTA       CLOUDY    56  53  90 SE20      29.98R
LAMAR          CLOUDY    56  54  93 E12       30.03R
SPRINGFIELD      N/A     54  53  97 N3        30.04R
$$



USA.gov is the U.S. government's official web portal to all federal, state and local government web resources and services.